Home   Weather   Wood Buffalo   Past weeks

Flag for Canada Past Weather in Wood Buffalo, Alberta, Canada — Yesterday and Last 2 Weeks

Now
55 °F

Sunny.


Feels Like: 55 °F
Forecast: 39 / 61 °F
Wind: 5 mph from Southwest

Location: Fort Mcmurray

Current Time: Sep 28, 2016 at 7:45:18 PM

Latest Report: Sep 28, 2016 at 7:00 PM


Visibility: 9 mi

Pressure: 30.28 "Hg

Humidity: 33%

Dew Point: 27 °F

Location of Wood BuffaloLocation

Past Weather in Wood Buffalo — Graph

°F

Wood Buffalo Temperature Yesterday

Maximum temperature yesterday: 61 °F (at 4:00 PM)
Minimum temperature yesterday: 43 °F (at 11:00 PM)
Average temperature yesterday: 56 °F

High & Low Weather Summary for the Past Weeks

 TemperatureHumidityPressure
High75 °F (Sep 26, 4:00 PM)100% (Sep 14, 7:00 AM)30.36 "Hg (Sep 14, 7:00 AM)
Low34 °F (Sep 28, 7:00 AM)29% (Sep 27, 4:00 PM)29.39 "Hg (Sep 18, 2:00 AM)
Average53 °F69%29.91 "Hg
* Reported Sep 13 6:00 PM — Sep 28 6:00 PM, Wood Buffalo, Weather by CustomWeather, © 2016

Note: Actual official high and low records may vary slightly from our data, if they occured in-between our weather recording intervals... More about our weather records

Advertising

Wood Buffalo Weather History for the Previous 24 Hours

Scroll right to see more
 ConditionsComfort  
Time TempWeatherWind HumidityBarometerVisibility
6:00 PM
Wed, Sep 28
59 °FSunny.10 mph31%30.28 "Hg9 mi
5:00 PM61 °FSunny.7 mph29%30.28 "Hg9 mi
4:00 PM61 °FScattered clouds.6 mph29%30.29 "Hg9 mi
3:00 PM61 °FScattered clouds.9 mph29%30.30 "Hg9 mi
2:00 PM61 °FSunny.7 mph29%30.32 "Hg9 mi
1:00 PM57 °FSunny.3 mph41%30.33 "Hg9 mi
12:00 PM55 °FSunny.No wind38%30.34 "Hg9 mi
11:00 AM52 °FSunny.3 mph47%30.35 "Hg9 mi
10:00 AM48 °FSunny.3 mph54%30.36 "Hg9 mi
9:00 AM41 °FSunny.5 mph70%30.36 "Hg9 mi
8:00 AM34 °FSunny.5 mph81%30.35 "Hg9 mi
7:00 AM34 °FClear.7 mph81%30.34 "Hg9 mi
6:00 AM36 °FClear.5 mph75%30.32 "Hg9 mi
5:00 AM36 °FClear.6 mph75%30.30 "Hg9 mi
4:00 AM36 °FClear.7 mph75%30.28 "Hg9 mi
3:00 AM37 °FClear.8 mph75%30.26 "Hg9 mi
2:00 AM37 °FClear.8 mph75%30.24 "Hg9 mi
1:00 AM39 °FClear.9 mph70%30.21 "Hg9 mi
12:00 AM46 °FClear.6 mph50%30.17 "Hg9 mi
11:00 PM
Tue, Sep 27
43 °FClear.12 mph61%30.14 "Hg9 mi
10:00 PM45 °FClear.10 mph57%30.11 "Hg9 mi
9:00 PM46 °FClear.9 mph57%30.08 "Hg9 mi
8:00 PM50 °FClear.7 mph50%30.05 "Hg9 mi
7:00 PM57 °FScattered clouds.8 mph36%30.02 "Hg9 mi
Weather by CustomWeather, © 2016

See weather overviewHow to use our weather pages